QPF
0.06 0.06 0.04 0.03 0.02 0.02 0.02 0.01 0.01 0.01 0.01 0.01 0.00 0.00 0.00 0.00 0.00 0.00 0.00 0.00 0.00 0.00 0.00 0.00 0.00 0.00 0.00 0.00 0.00 0.00 0.00 0.00 0.00 0.00 0.00 0.00 0.00 0.00 0.00 0.00 0.00 0.00 0.00
0.03 0.02 0.02 0.01 0.01 0.01 0.01 0.01 0.01 0.01 0.01 0.01 0.01 0.01 0.01 0.01 0.01 0.01 0.01 0.01 0.00 0.00 0.00 0.00 0.00 0.00 0.00 0.00 0.00 0.00 0.00 0.00 0.00 0.00 0.00 0.00 0.00 0.00 0.00 0.00 0.00 0.00 0.00
0.02 0.02 0.01 0.01 0.01 0.01 0.01 0.01 0.01 0.01 0.01 0.01 0.01 0.01 0.01 0.01 0.01 0.00 0.00 0.00 0.00 0.00 0.00 0.00 0.00 0.00 0.00 0.00 0.00 0.00 0.00 0.00 0.00 0.00 0.00 0.00 0.00 0.00 0.00 0.00 0.00 0.00 0.00
0.01 0.01 0.01 0.01 0.01 0.01 0.01 0.01 0.01 0.01 0.00 0.00 0.00 0.00 0.00 0.00 0.00 0.00 0.00 0.00 0.00 0.00 0.00 0.00 0.00 0.00 0.00 0.00 0.00 0.00 0.00 0.00 0.00 0.00 0.00 0.00 0.00 0.00 0.00 0.00 0.00 0.00 0.00
0.00 0.00 0.00 0.00 0.01 0.01 0.01 0.00 0.00 0.00 0.00 0.00 0.00 0.00 0.00 0.00 0.00 0.00 0.00 0.00 0.00 0.00 0.00 0.00 0.00 0.00 0.00 0.00 0.01 0.00 0.00 0.00 0.00 0.00 0.00 0.00 0.00 0.00 0.00 0.00 0.00 0.00 0.00
0.00 0.00 0.00 0.00 0.00 0.00 0.00 0.00 0.00 0.00 0.00 0.00 0.00 0.00 0.00 0.00 0.00 0.00 0.00 0.00 0.00 0.00 0.00 0.00 0.00 0.00 0.00 0.00 0.00 0.00 0.00 0.00 0.00 0.00 0.00 0.00 0.00 0.00 0.00 0.00 0.00 0.01 0.00
0.00 0.00 0.00 0.00 0.00 0.00 0.00 0.00 0.00 0.00 0.00 0.00 0.00 0.00 0.00 0.00 0.00 0.00 0.00 0.00 0.00 0.00 0.00 0.00 0.00 0.00 0.00 0.00 0.00 0.00 0.00 0.00 0.00 0.00 0.00 0.00 0.00 0.00 0.01 0.01 0.01 0.01 0.01
0.00 0.00 0.00 0.00 0.00 0.00 0.00 0.00 0.00 0.00 0.00 0.00 0.00 0.00 0.00 0.00 0.00 0.00 0.00 0.00 0.00 0.00 0.00 0.00 0.00 0.00 0.00 0.00 0.00 0.00 0.00 0.00 0.00 0.00 0.00 0.01 0.01 0.00 0.01 0.01 0.01 0.01 0.01
0.00 0.00 0.00 0.00 0.00 0.00 0.00 0.00 0.00 0.00 0.00 0.00 0.00 0.00 0.00 0.00 0.00 0.00 0.00 0.00 0.00 0.00 0.00 0.00 0.00 0.00 0.00 0.00 0.00 0.00 0.00 0.01 0.01 0.01 0.01 0.01 0.01 0.01 0.01 0.01 0.01 0.02 0.01
0.00 0.00 0.00 0.00 0.00 0.00 0.00 0.00 0.00 0.00 0.00 0.00 0.00 0.00 0.00 0.00 0.00 0.00 0.00 0.00 0.00 0.00 0.00 0.00 0.00 0.00 0.00 0.01 0.01 0.01 0.02 0.02 0.01 0.02 0.01 0.01 0.01 0.00 0.01 0.01 0.01 0.01 0.01
0.00 0.00 0.00 0.00 0.00 0.00 0.00 0.00 0.00 0.00 0.00 0.00 0.00 0.00 0.00 0.00 0.00 0.00 0.00 0.00 0.00 0.00 0.00 0.00 0.00 0.00 0.00 0.01 0.02 0.02 0.02 0.01 0.01 0.01 0.01 0.00 0.00 0.00 0.01 0.01 0.00 0.00 0.01
0.00 0.00 0.00 0.00 0.00 0.00 0.00 0.00 0.00 0.00 0.00 0.00 0.00 0.00 0.00 0.00 0.00 0.00 0.00 0.00 0.00 0.00 0.01 0.01 0.00 0.00 0.01 0.01 0.02 0.01 0.01 0.01 0.01 0.01 0.01 0.00 0.00 0.00 0.00 0.00 0.00 0.00 0.00
0.00 0.00 0.00 0.00 0.00 0.00 0.00 0.00 0.00 0.00 0.00 0.00 0.00 0.00 0.00 0.00 0.00 0.00 0.00 0.00 0.01 0.01 0.02 0.02 0.01 0.01 0.01 0.01 0.01 0.01 0.01 0.01 0.01 0.00 0.00 0.00 0.00 0.00 0.00 0.00 0.00 0.00 0.00
0.00 0.00 0.00 0.00 0.00 0.00 0.00 0.00 0.00 0.00 0.00 0.00 0.00 0.00 0.00 0.00 0.00 0.00 0.00 0.00 0.02 0.03 0.03 0.03 0.02 0.01 0.01 0.01 0.01 0.01 0.01 0.01 0.00 0.00 0.00 0.00 0.00 0.00 0.00 0.00 0.00 0.00 0.00
0.00 0.00 0.00 0.00 0.00 0.00 0.00 0.00 0.00 0.00 0.00 0.00 0.00 0.00 0.00 0.00 0.00 0.00 0.01 0.01 0.02 0.03 0.03 0.03 0.03 0.03 0.02 0.02 0.02 0.01 0.01 0.01 0.00 0.00 0.00 0.00 0.00 0.00 0.00 0.00 0.00 0.00 0.00
0.00 0.00 0.00 0.00 0.00 0.00 0.00 0.00 0.00 0.00 0.00 0.00 0.00 0.00 0.00 0.01 0.01 0.00 0.01 0.01 0.02 0.03 0.03 0.03 0.04 0.02 0.01 0.01 0.01 0.01 0.01 0.00 0.00 0.00 0.00 0.00 0.00 0.00 0.00 0.00 0.00 0.00 0.00
0.00 0.00 0.00 0.00 0.00 0.00 0.00 0.00 0.00 0.00 0.00 0.00 0.00 0.00 0.00 0.00 0.01 0.01 0.01 0.01 0.02 0.03 0.03 0.02 0.02 0.01 0.00 0.00 0.00 0.00 0.00 0.00 0.00 0.00 0.00 0.00 0.00 0.00 0.00 0.00 0.00 0.00 0.00
0.00 0.00 0.00 0.00 0.00 0.00 0.00 0.00 0.00 0.00 0.00 0.00 0.00 0.00 0.00 0.00 0.01 0.01 0.01 0.02 0.01 0.02 0.02 0.01 0.01 0.01 0.00 0.00 0.00 0.00 0.00 0.00 0.00 0.00 0.00 0.00 0.00 0.00 0.00 0.00 0.00 0.00 0.00
0.00 0.00 0.00 0.00 0.00 0.00 0.00 0.00 0.00 0.00 0.00 0.00 0.00 0.00 0.00 0.00 0.00 0.00 0.01 0.01 0.01 0.00 0.00 0.00 0.00 0.00 0.00 0.00 0.00 0.00 0.00 0.00 0.00 0.00 0.00 0.00 0.00 0.00 0.00 0.00 0.00 0.00 0.00
0.00 0.00 0.00 0.00 0.00 0.00 0.00 0.00 0.00 0.00 0.00 0.00 0.00 0.00 0.00 0.01 0.01 0.00 0.00 0.01 0.01 0.00 0.00 0.00 0.00 0.00 0.00 0.00 0.00 0.00 0.00 0.00 0.00 0.00 0.00 0.00 0.00 0.00 0.00 0.00 0.00 0.00 0.00
0.00 0.00 0.00 0.00 0.00 0.00 0.00 0.00 0.00 0.00 0.00 0.00 0.00 0.00 0.00 0.00 0.00 0.00 0.00 0.01 0.00 0.00 0.00 0.00 0.00 0.00 0.00 0.00 0.00 0.00 0.00 0.00 0.00 0.00 0.00 0.00 0.00 0.00 0.00 0.00 0.00 0.00 0.00
0.00 0.00 0.00 0.00 0.00 0.00 0.00 0.00 0.00 0.00 0.00 0.00 0.00 0.00 0.00 0.00 0.00 0.00 0.00 0.00 0.00 0.00 0.00 0.00 0.00 0.00 0.00 0.00 0.00 0.00 0.00 0.00 0.00 0.00 0.00 0.00 0.00 0.00 0.00 0.00 0.00 0.00 0.00
0.00 0.00 0.00 0.00 0.00 0.00 0.00 0.00 0.00 0.00 0.00 0.00 0.00 0.00 0.00 0.00 0.00 0.00 0.00 0.00 0.00 0.00 0.00 0.00 0.00 0.00 0.00 0.00 0.00 0.00 0.00 0.00 0.00 0.00 0.00 0.00 0.00 0.00 0.00 0.00 0.00 0.00 0.00
0.00 0.00 0.00 0.00 0.00 0.00 0.00 0.00 0.00 0.00 0.00 0.00 0.00 0.00 0.00 0.00 0.00 0.00 0.00 0.00 0.00 0.00 0.00 0.00 0.00 0.00 0.00 0.00 0.00 0.00 0.00 0.00 0.00 0.00 0.00 0.00 0.00 0.00 0.00 0.00 0.00 0.00 0.00
0.00 0.00 0.00 0.00 0.00 0.00 0.00 0.00 0.00 0.00 0.00 0.00 0.00 0.00 0.00 0.00 0.00 0.00 0.00 0.00 0.00 0.00 0.00 0.00 0.00 0.00 0.00 0.00 0.00 0.00 0.00 0.00 0.00 0.00 0.00 0.00 0.00 0.00 0.00 0.00 0.00 0.00 0.00
0.00 0.00 0.00 0.00 0.00 0.00 0.00 0.00 0.00 0.00 0.00 0.00 0.00 0.00 0.00 0.00 0.00 0.00 0.00 0.00 0.00 0.00 0.00 0.00 0.00 0.00 0.00 0.00 0.00 0.00 0.00 0.00 0.00 0.00 0.00 0.00 0.00 0.00 0.00 0.00 0.00 0.00 0.00
MSLP
1021.90 1022.09 1022.29 1022.51 1022.74 1022.96 1023.17 1023.38 1023.60 1023.81 1024.04 1024.26 1024.49 1024.70 1024.89 1025.05 1025.16 1025.21 1025.22 1025.18 1025.09 1024.97 1024.82 1024.65 1024.46 1024.26 1024.06 1023.86 1023.67 1023.49 1023.31 1023.14 1022.96 1022.77 1022.55 1022.29 1021.99 1021.65 1021.26 1020.86 1020.44 1020.02 1019.63
1023.22 1023.35 1023.48 1023.61 1023.75 1023.88 1024.02 1024.16 1024.32 1024.48 1024.66 1024.84 1025.03 1025.21 1025.36 1025.49 1025.57 1025.61 1025.59 1025.53 1025.41 1025.25 1025.06 1024.84 1024.60 1024.34 1024.09 1023.84 1023.60 1023.39 1023.18 1022.98 1022.78 1022.56 1022.32 1022.03 1021.71 1021.34 1020.93 1020.50 1020.06 1019.63 1019.22
1024.32 1024.41 1024.50 1024.57 1024.64 1024.71 1024.79 1024.87 1024.97 1025.08 1025.21 1025.35 1025.48 1025.62 1025.73 1025.81 1025.86 1025.87 1025.82 1025.73 1025.59 1025.40 1025.17 1024.91 1024.63 1024.33 1024.04 1023.75 1023.47 1023.22 1022.98 1022.75 1022.53 1022.29 1022.02 1021.72 1021.38 1020.99 1020.57 1020.12 1019.67 1019.23 1018.80
1025.20 1025.28 1025.33 1025.37 1025.40 1025.42 1025.45 1025.49 1025.54 1025.61 1025.68 1025.77 1025.85 1025.93 1025.99 1026.03 1026.04 1026.01 1025.93 1025.81 1025.65 1025.44 1025.19 1024.90 1024.59 1024.26 1023.93 1023.60 1023.29 1023.00 1022.73 1022.48 1022.22 1021.96 1021.68 1021.36 1021.01 1020.61 1020.18 1019.73 1019.27 1018.82 1018.38
1025.87 1025.95 1025.99 1026.00 1026.01 1026.00 1026.00 1026.00 1026.01 1026.04 1026.07 1026.11 1026.14 1026.17 1026.17 1026.16 1026.13 1026.06 1025.95 1025.81 1025.63 1025.40 1025.13 1024.83 1024.49 1024.14 1023.78 1023.42 1023.08 1022.75 1022.45 1022.16 1021.87 1021.59 1021.29 1020.96 1020.59 1020.20 1019.77 1019.33 1018.87 1018.41 1017.97
1026.36 1026.44 1026.48 1026.48 1026.47 1026.44 1026.42 1026.40 1026.39 1026.38 1026.38 1026.37 1026.36 1026.34 1026.30 1026.24 1026.16 1026.06 1025.93 1025.77 1025.56 1025.32 1025.04 1024.72 1024.37 1024.00 1023.60 1023.21 1022.83 1022.47 1022.12 1021.79 1021.48 1021.17 1020.85 1020.51 1020.15 1019.76 1019.35 1018.92 1018.47 1018.02 1017.57
1026.73 1026.80 1026.83 1026.83 1026.80 1026.77 1026.73 1026.70 1026.67 1026.65 1026.62 1026.58 1026.54 1026.48 1026.40 1026.30 1026.19 1026.05 1025.89 1025.71 1025.49 1025.23 1024.93 1024.60 1024.23 1023.83 1023.41 1022.98 1022.56 1022.15 1021.77 1021.40 1021.05 1020.71 1020.38 1020.04 1019.69 1019.32 1018.93 1018.52 1018.10 1017.66 1017.21
1027.00 1027.07 1027.08 1027.07 1027.04 1027.00 1026.96 1026.92 1026.89 1026.85 1026.81 1026.77 1026.70 1026.61 1026.50 1026.38 1026.23 1026.06 1025.88 1025.66 1025.42 1025.14 1024.82 1024.46 1024.07 1023.64 1023.18 1022.72 1022.26 1021.80 1021.37 1020.97 1020.59 1020.24 1019.90 1019.56 1019.23 1018.89 1018.53 1018.16 1017.77 1017.36 1016.92
1027.22 1027.26 1027.26 1027.23 1027.19 1027.15 1027.11 1027.08 1027.05 1027.03 1026.99 1026.94 1026.86 1026.76 1026.64 1026.48 1026.31 1026.11 1025.89 1025.64 1025.36 1025.05 1024.70 1024.31 1023.88 1023.41 1022.92 1022.42 1021.92 1021.43 1020.97 1020.54 1020.14 1019.77 1019.44 1019.12 1018.81 1018.50 1018.19 1017.86 1017.51 1017.13 1016.71
1027.39 1027.40 1027.38 1027.33 1027.29 1027.25 1027.22 1027.20 1027.19 1027.18 1027.16 1027.12 1027.05 1026.94 1026.80 1026.63 1026.42 1026.18 1025.92 1025.62 1025.30 1024.95 1024.55 1024.12 1023.65 1023.15 1022.63 1022.09 1021.56 1021.04 1020.56 1020.11 1019.71 1019.35 1019.02 1018.73 1018.45 1018.18 1017.91 1017.63 1017.31 1016.97 1016.58
1027.50 1027.48 1027.44 1027.38 1027.33 1027.30 1027.29 1027.29 1027.31 1027.32 1027.33 1027.30 1027.24 1027.13 1026.98 1026.78 1026.54 1026.26 1025.95 1025.61 1025.23 1024.82 1024.38 1023.90 1023.39 1022.85 1022.30 1021.74 1021.20 1020.67 1020.18 1019.73 1019.34 1018.99 1018.69 1018.42 1018.17 1017.94 1017.71 1017.46 1017.18 1016.87 1016.52
1027.55 1027.50 1027.44 1027.39 1027.34 1027.32 1027.33 1027.36 1027.41 1027.45 1027.48 1027.47 1027.42 1027.31 1027.15 1026.93 1026.65 1026.33 1025.97 1025.57 1025.13 1024.67 1024.18 1023.65 1023.11 1022.55 1021.97 1021.41 1020.86 1020.33 1019.85 1019.42 1019.04 1018.71 1018.43 1018.19 1017.97 1017.77 1017.56 1017.34 1017.09 1016.80 1016.47
1027.52 1027.46 1027.40 1027.34 1027.31 1027.32 1027.35 1027.41 1027.48 1027.55 1027.60 1027.61 1027.56 1027.45 1027.27 1027.03 1026.72 1026.36 1025.94 1025.49 1025.01 1024.50 1023.96 1023.41 1022.84 1022.26 1021.68 1021.12 1020.58 1020.07 1019.61 1019.20 1018.84 1018.53 1018.27 1018.04 1017.83 1017.64 1017.44 1017.23 1016.99 1016.72 1016.40
1027.42 1027.36 1027.30 1027.26 1027.26 1027.29 1027.35 1027.43 1027.53 1027.61 1027.68 1027.69 1027.65 1027.53 1027.34 1027.07 1026.73 1026.33 1025.89 1025.40 1024.88 1024.33 1023.77 1023.19 1022.61 1022.04 1021.47 1020.92 1020.40 1019.92 1019.48 1019.09 1018.74 1018.44 1018.18 1017.95 1017.74 1017.53 1017.32 1017.10 1016.85 1016.58 1016.28
1027.27 1027.22 1027.18 1027.17 1027.19 1027.24 1027.32 1027.43 1027.54 1027.63 1027.70 1027.72 1027.67 1027.54 1027.33 1027.05 1026.69 1026.28 1025.81 1025.30 1024.76 1024.21 1023.64 1023.06 1022.49 1021.93 1021.38 1020.85 1020.36 1019.90 1019.47 1019.09 1018.75 1018.44 1018.17 1017.91 1017.67 1017.43 1017.19 1016.94 1016.68 1016.39 1016.09
1027.09 1027.07 1027.07 1027.08 1027.13 1027.20 1027.30 1027.41 1027.53 1027.62 1027.68 1027.69 1027.63 1027.50 1027.29 1027.00 1026.64 1026.22 1025.75 1025.25 1024.72 1024.17 1023.62 1023.06 1022.51 1021.98 1021.45 1020.95 1020.47 1020.02 1019.60 1019.22 1018.86 1018.53 1018.21 1017.92 1017.63 1017.34 1017.06 1016.77 1016.47 1016.16 1015.85
1026.93 1026.95 1026.97 1027.02 1027.09 1027.18 1027.29 1027.40 1027.51 1027.60 1027.65 1027.64 1027.58 1027.44 1027.23 1026.95 1026.60 1026.20 1025.76 1025.28 1024.78 1024.27 1023.74 1023.22 1022.70 1022.19 1021.69 1021.21 1020.74 1020.29 1019.86 1019.45 1019.06 1018.68 1018.32 1017.97 1017.62 1017.28 1016.94 1016.60 1016.27 1015.94 1015.62
1026.81 1026.86 1026.92 1026.99 1027.08 1027.18 1027.29 1027.40 1027.50 1027.57 1027.61 1027.60 1027.53 1027.40 1027.21 1026.95 1026.63 1026.27 1025.87 1025.43 1024.97 1024.50 1024.02 1023.54 1023.05 1022.57 1022.09 1021.61 1021.14 1020.68 1020.22 1019.77 1019.33 1018.90 1018.48 1018.06 1017.65 1017.25 1016.86 1016.49 1016.13 1015.79 1015.47
1026.75 1026.82 1026.90 1027.00 1027.10 1027.21 1027.31 1027.42 1027.51 1027.57 1027.60 1027.59 1027.53 1027.42 1027.24 1027.02 1026.75 1026.43 1026.08 1025.70 1025.29 1024.87 1024.43 1023.99 1023.53 1023.06 1022.59 1022.10 1021.62 1021.13 1020.63 1020.14 1019.64 1019.15 1018.67 1018.20 1017.74 1017.29 1016.87 1016.46 1016.09 1015.75 1015.43
1026.72 1026.81 1026.91 1027.01 1027.12 1027.23 1027.34 1027.44 1027.53 1027.59 1027.63 1027.62 1027.58 1027.49 1027.35 1027.17 1026.95 1026.69 1026.39 1026.06 1025.71 1025.33 1024.93 1024.51 1024.07 1023.61 1023.13 1022.63 1022.12 1021.59 1021.05 1020.51 1019.96 1019.42 1018.89 1018.37 1017.87 1017.40 1016.96 1016.55 1016.18 1015.84 1015.54
1026.70 1026.80 1026.90 1027.02 1027.13 1027.25 1027.36 1027.47 1027.56 1027.63 1027.68 1027.69 1027.68 1027.62 1027.53 1027.39 1027.21 1027.00 1026.76 1026.48 1026.16 1025.82 1025.44 1025.04 1024.60 1024.14 1023.64 1023.12 1022.58 1022.01 1021.43 1020.85 1020.26 1019.68 1019.11 1018.57 1018.06 1017.58 1017.14 1016.74 1016.39 1016.07 1015.79
1026.67 1026.77 1026.88 1026.99 1027.12 1027.24 1027.36 1027.48 1027.58 1027.68 1027.74 1027.79 1027.80 1027.78 1027.73 1027.64 1027.50 1027.33 1027.13 1026.88 1026.59 1026.27 1025.91 1025.51 1025.07 1024.59 1024.08 1023.53 1022.95 1022.36 1021.74 1021.12 1020.51 1019.91 1019.33 1018.78 1018.27 1017.80 1017.39 1017.01 1016.69 1016.40 1016.15
1026.62 1026.71 1026.82 1026.94 1027.07 1027.20 1027.34 1027.48 1027.60 1027.72 1027.82 1027.89 1027.94 1027.96 1027.94 1027.88 1027.78 1027.64 1027.45 1027.23 1026.95 1026.64 1026.28 1025.87 1025.42 1024.93 1024.39 1023.83 1023.23 1022.61 1021.98 1021.34 1020.72 1020.11 1019.53 1019.00 1018.51 1018.06 1017.68 1017.34 1017.04 1016.79 1016.57
1026.55 1026.63 1026.74 1026.87 1027.01 1027.16 1027.32 1027.48 1027.63 1027.77 1027.89 1028.00 1028.07 1028.12 1028.12 1028.08 1028.01 1027.88 1027.71 1027.49 1027.22 1026.90 1026.54 1026.12 1025.66 1025.16 1024.61 1024.04 1023.43 1022.80 1022.16 1021.53 1020.90 1020.30 1019.74 1019.22 1018.76 1018.35 1017.99 1017.69 1017.43 1017.21 1017.01
1026.48 1026.57 1026.68 1026.81 1026.97 1027.14 1027.31 1027.49 1027.67 1027.83 1027.98 1028.10 1028.20 1028.25 1028.28 1028.25 1028.18 1028.06 1027.90 1027.68 1027.41 1027.09 1026.72 1026.30 1025.84 1025.33 1024.79 1024.21 1023.60 1022.98 1022.35 1021.72 1021.11 1020.53 1019.99 1019.49 1019.05 1018.66 1018.33 1018.06 1017.82 1017.62 1017.44
1026.45 1026.54 1026.67 1026.81 1026.98 1027.17 1027.36 1027.55 1027.74 1027.92 1028.08 1028.21 1028.32 1028.38 1028.41 1028.39 1028.32 1028.20 1028.04 1027.82 1027.56 1027.24 1026.88 1026.47 1026.01 1025.52 1024.98 1024.42 1023.83 1023.22 1022.60 1022.00 1021.40 1020.84 1020.31 1019.83 1019.40 1019.03 1018.72 1018.45 1018.23 1018.04 1017.88
Thickness
5618 5615 5612 5608 5604 5601 5596 5591 5586 5581 5577 5573 5568 5564 5560 5555 5550 5547 5542 5538 5534 5530 5525 5522 5518 5514 5510 5506 5502 5498 5495 5491 5489 5489 5484 5482 5480 5479 5479 5478 5477 5476 5475
5601 5597 5593 5590 5587 5583 5578 5573 5570 5565 5560 5555 5551 5547 5542 5537 5532 5528 5523 5519 5515 5511 5507 5503 5499 5496 5492 5488 5484 5480 5476 5472 5470 5470 5468 5466 5465 5464 5464 5464 5463 5463 5462
5584 5580 5576 5572 5569 5565 5561 5557 5553 5548 5543 5539 5535 5529 5524 5519 5514 5509 5505 5500 5496 5492 5488 5484 5480 5477 5475 5471 5467 5464 5460 5457 5453 5451 5452 5450 5450 5450 5451 5451 5451 5450 5450
5567 5563 5559 5555 5552 5548 5545 5541 5537 5532 5527 5522 5517 5512 5506 5502 5497 5492 5487 5483 5478 5474 5470 5466 5463 5460 5458 5455 5453 5449 5446 5443 5441 5439 5439 5439 5439 5440 5439 5440 5442 5442 5441
5551 5547 5543 5540 5537 5534 5530 5526 5521 5516 5511 5506 5501 5496 5491 5486 5480 5475 5469 5464 5459 5455 5451 5448 5447 5446 5444 5441 5440 5437 5435 5433 5431 5430 5430 5430 5431 5432 5431 5431 5432 5434 5434
5536 5532 5529 5526 5523 5518 5514 5510 5506 5501 5496 5491 5486 5480 5475 5470 5464 5458 5452 5446 5441 5436 5433 5432 5431 5431 5430 5429 5428 5427 5426 5425 5423 5422 5422 5423 5425 5425 5425 5425 5425 5427 5430
5522 5519 5515 5512 5509 5505 5501 5496 5491 5486 5481 5476 5471 5465 5459 5454 5448 5441 5435 5429 5424 5420 5418 5417 5418 5418 5418 5418 5419 5419 5420 5419 5418 5418 5419 5420 5421 5422 5421 5422 5422 5422 5423
5509 5506 5504 5500 5497 5492 5488 5483 5478 5473 5468 5463 5457 5451 5445 5439 5432 5426 5421 5416 5412 5410 5408 5407 5407 5409 5410 5410 5411 5413 5415 5417 5417 5417 5417 5419 5419 5419 5418 5418 5418 5418 5419
5498 5496 5493 5489 5485 5481 5477 5472 5467 5461 5456 5451 5445 5439 5433 5427 5422 5416 5412 5407 5405 5403 5403 5403 5403 5404 5405 5405 5407 5409 5412 5416 5418 5418 5418 5418 5419 5419 5418 5417 5417 5417 5418
5489 5486 5482 5479 5475 5471 5467 5462 5456 5451 5446 5441 5435 5429 5423 5418 5413 5409 5404 5401 5399 5399 5400 5401 5402 5402 5404 5405 5406 5408 5411 5415 5416 5418 5418 5419 5419 5419 5418 5416 5415 5414 5413
5480 5477 5474 5471 5467 5463 5458 5453 5448 5443 5438 5432 5426 5421 5416 5411 5407 5403 5399 5396 5395 5396 5398 5401 5403 5404 5406 5408 5409 5410 5411 5413 5415 5416 5417 5418 5419 5418 5417 5416 5413 5410 5409
5472 5469 5466 5463 5460 5457 5451 5446 5441 5436 5431 5425 5419 5415 5410 5406 5402 5400 5397 5396 5395 5395 5398 5400 5403 5406 5408 5411 5413 5414 5415 5416 5416 5416 5417 5418 5417 5417 5416 5414 5412 5410 5408
5465 5462 5459 5457 5453 5450 5446 5441 5435 5430 5425 5419 5414 5410 5407 5403 5401 5399 5398 5398 5398 5398 5400 5403 5406 5409 5412 5414 5416 5417 5418 5418 5417 5417 5417 5417 5416 5414 5413 5413 5412 5410 5409
5459 5456 5453 5450 5447 5444 5440 5436 5431 5426 5421 5416 5412 5408 5404 5402 5401 5399 5399 5400 5401 5402 5404 5407 5410 5413 5415 5417 5418 5420 5420 5419 5418 5417 5417 5416 5415 5415 5413 5411 5409 5408 5407
5454 5451 5447 5445 5442 5439 5436 5431 5428 5423 5418 5414 5410 5406 5403 5401 5401 5399 5398 5400 5401 5403 5406 5409 5412 5414 5417 5418 5420 5421 5421 5421 5420 5419 5418 5417 5416 5415 5413 5411 5408 5406 5405
5449 5446 5443 5441 5438 5435 5432 5428 5424 5421 5417 5413 5409 5406 5403 5402 5401 5401 5402 5404 5405 5407 5409 5410 5412 5413 5415 5417 5419 5420 5422 5421 5420 5420 5419 5417 5416 5415 5413 5411 5409 5407 5405
5445 5443 5440 5438 5435 5432 5429 5425 5422 5418 5415 5413 5410 5407 5405 5404 5404 5404 5405 5407 5409 5410 5410 5411 5412 5414 5415 5417 5418 5419 5420 5420 5420 5420 5420 5419 5417 5416 5415 5413 5411 5409 5408
5443 5441 5438 5435 5432 5429 5426 5423 5419 5416 5413 5411 5410 5408 5407 5407 5406 5406 5407 5409 5411 5412 5411 5411 5413 5414 5416 5417 5418 5419 5420 5421 5421 5421 5420 5420 5418 5417 5416 5414 5412 5410 5409
5442 5439 5435 5432 5429 5426 5424 5421 5418 5415 5412 5410 5409 5409 5408 5408 5408 5408 5408 5409 5409 5410 5411 5412 5413 5414 5416 5417 5418 5419 5420 5421 5421 5421 5421 5420 5419 5418 5417 5416 5415 5411 5410
5440 5438 5434 5431 5427 5424 5422 5419 5417 5414 5411 5410 5409 5408 5408 5408 5408 5408 5409 5409 5410 5411 5412 5412 5414 5415 5416 5417 5418 5419 5421 5421 5421 5421 5420 5420 5420 5420 5419 5418 5417 5415 5413
5439 5436 5434 5430 5426 5424 5421 5418 5416 5413 5411 5410 5409 5408 5407 5407 5407 5408 5408 5409 5410 5411 5411 5413 5414 5415 5416 5417 5419 5420 5421 5422 5421 5420 5420 5421 5421 5422 5421 5420 5419 5417 5416
5438 5435 5432 5429 5425 5423 5420 5417 5415 5413 5411 5410 5409 5408 5408 5408 5408 5409 5409 5410 5410 5410 5411 5412 5413 5414 5415 5416 5417 5419 5420 5422 5422 5421 5421 5422 5422 5423 5423 5422 5421 5419 5418
5438 5435 5431 5428 5425 5422 5419 5417 5414 5413 5411 5410 5409 5409 5409 5409 5409 5409 5409 5410 5410 5411 5412 5413 5414 5416 5417 5417 5418 5418 5419 5420 5421 5421 5421 5423 5424 5424 5424 5423 5422 5421 5420
5438 5435 5432 5428 5425 5422 5419 5416 5414 5412 5411 5410 5409 5409 5408 5408 5409 5409 5409 5409 5410 5411 5412 5413 5414 5416 5417 5419 5421 5421 5421 5422 5423 5424 5424 5424 5425 5425 5425 5424 5423 5422 5420
5439 5435 5431 5428 5424 5421 5418 5416 5414 5412 5411 5410 5409 5409 5408 5408 5408 5409 5409 5409 5410 5411 5413 5414 5415 5417 5418 5420 5421 5423 5425 5426 5427 5428 5428 5427 5427 5426 5425 5424 5423 5422 5421
5439 5435 5431 5428 5424 5421 5418 5416 5414 5412 5411 5410 5409 5408 5408 5408 5408 5408 5409 5409 5410 5411 5413 5414 5415 5417 5419 5421 5422 5424 5427 5428 5429 5430 5429 5429 5428 5427 5426 5424 5423 5422 5421